Aérodrome :
LOGIN :

S'inscrire | Disclaimer

   EN    FR    IT 

 










Légende :    VFR   VFR Marginal   IFR   IFR Intensif   IFR Très Intensif
Visi : 
Plafond : 
>= 8 km
>= 3000ft
5 à 8 km
1000 à 3000 ft
1500m à 5 km
500 à 1000 ft
800 à 1500m
200 à 500 ft
< 800m
< 200 ft
Symboles :   Orages  Brouillard  Fortes neiges  Fortes précipitations  Vent > 20 kt
SIGMETs :   Divers  Orages  Givrage  Turbulence  Onde Orograph.  Cendres Volcan.







- Altitude de l'aérodrome : 17 ft
- Code IATA : GRS


LIRS - Grosseto

DERNIER METAR :
  • 211455Z 23012KT 9999 FEW025 23/11 Q1019

METARs EXPIRÉS :
  • 211355Z 22012KT 9999 SCT025 23/10 Q1019 RMK SCT VIS MIN 9999 WIND THR03 23012KT WIND THR21 23012KT BLU
  • 211255Z 23010KT 9999 SCT025 24/14 Q1019 RMK BKN VIS MIN 9999 WIND THR03 23010KT WIND THR21 23009KT BLU

TAF TAF LIRS
Valide du 21 à 15h jusqu'au 22 à 00h UTC


211400Z 2115/2124 23012KT 9999 FEW025
BECMG 2117/2119 03005KT
Pas de NOTAMs connus pour ce terrain.



MET'MAP, la Météo Aéronautique d'un coup d'oeil ! - Copyright ORBIFLY Décembre 2007 - Disclaimer

ORBIFLY MET'MAP TEAM :

Programmation & Développement : Alexandra Zaïnal
Conception & Développement : Baudouin d'Aumeries
Co-Programmation & Développement : Marc-Olivier Méhu
Soutien technique & logistique : Manuel Goepfert

Contact : metmap@orbifly.com




SOURCES & CREDITS :

   NOAA